Vertical_Velocity
-3 -1 -2 2 0 2 -0 -1 -1 -0 0 0 -1 -0 -0 1 -7 -2 2 2 0 7 2 -1 3 -0 -1 1 2 4 -2 2 3
-1 1 1 0 0 0 -1 -0 0 -0 -1 -1 -1 -1 -5 12 -3 -0 -3 -1 4 -3 1 1 -1 -3 -2 -1 -1 -1 -0 1 -2
0 1 1 -1 -1 -3 -2 -1 -0 -1 -0 -1 -2 -1 -5 8 4 -5 -5 3 -1 -3 -0 -0 -1 -3 -1 -1 -2 -0 -1 -2 1
1 -0 -1 -1 -0 -1 -1 -0 0 -2 -1 -2 -1 -1 -3 7 -3 23 -5 -1 -0 -2 -2 -2 0 0 -1 -3 -1 -1 -2 1 -0
-1 -2 -1 -1 -2 -1 -0 0 0 -1 -1 -1 -0 -0 -2 4 -3 4 -2 -1 -2 -1 -1 0 -2 -1 -2 -1 0 -1 1 -2 -0
-1 -2 -2 -2 -2 -2 -3 -2 -1 -1 -1 0 0 1 4 1 -1 -1 -1 -1 -0 -1 -1 -2 -1 -1 -1 -1 -0 -0 -1 -1 -0
-0 -2 -3 -1 -1 -1 0 -0 -1 -0 -0 0 -1 -4 -1 -1 -3 -4 -1 -1 0 -1 -1 -2 -1 -1 -1 0 -0 -1 2 -1 -1
0 -1 -1 -0 0 -1 -2 -1 -2 -3 2 -4 -2 3 4 2 -2 -5 -2 -1 -0 -1 -1 -1 0 -2 -2 -2 -0 -0 0 -0 -1
2 -1 -2 -1 -3 -1 -2 -2 -2 -0 -2 1 1 -0 2 2 0 -4 -2 0 -2 -0 -1 -0 -2 -2 -1 -0 0 -0 -2 -2 -0
-1 1 1 -2 -1 2 -2 1 2 -2 -0 0 1 -1 -2 -1 -3 0 -1 -2 -1 -1 -1 -0 -1 -2 -4 -3 -3 -1 1 -0 -2
-1 -0 -0 2 1 0 1 -1 -0 2 0 -0 -1 -1 -2 -1 -1 2 -1 -2 1 -2 0 -2 -1 -1 -0 -3 -2 -1 -1 -1 -2
1 -1 -1 1 1 -0 -1 -1 1 0 -1 1 1 -0 0 0 1 1 -6 -2 -1 -2 -2 -3 -1 -1 -1 -1 -2 -3 -4 -2 -1
-2 -2 -0 -1 0 1 -1 -0 -3 1 -1 -0 -1 -1 -1 -0 0 -1 1 -5 -3 -1 -2 0 -2 -2 -2 -4 -2 -0 -0 -1 -1
2 -3 -1 1 -1 1 1 2 -2 -0 -0 0 0 1 -1 -1 -1 -2 -1 0 0 -1 0 -1 1 1 -1 -1 -3 -3 -3 -2 -3
-1 -2 -2 -2 -1 -1 0 2 0 1 -0 2 1 -1 0 -0 -0 -1 -1 -2 2 2 -2 -1 0 -2 -0 -1 -2 -1 -1 -2 -1
-1 0 -2 -0 -4 1 1 0 1 0 2 2 2 0 -1 -1 -1 -1 -1 -2 0 -0 -4 1 -1 5 0 -1 0 1 -1 -2 -0
-3 -0 1 2 -0 -1 1 1 0 1 2 -3 3 0 -1 -1 0 -0 2 2 1 4 4 1 3 -2 3 -0 1 2 2 -0 -1
1 2 2 3 0 -5 -0 -1 -3 -0 -3 3 -3 -2 -5 1 -2 2 1 3 -2 -3 -1 2 -1 -3 -0 -1 -2 -4 -3 -5 -1
4 5 -1 4 4 -1 0 5 -0 5 -6 8 -6 2 -1 -1 -2 -1 0 3 3 -1 -1 1 3 2 6 0 -3 -1 2 -0 -0
5 4 11 1 4 0 4 3 -2 2 8 -4 3 5 3 1 2 1 -2 -2 1 2 2 1 1 2 3 1 1 4 -1 -1 -5
Height
1540 1542 1543 1544 1545 1546 1547 1549 1550 1550 1551 1550 1551 1552 1554 1554 1557 1557 1557 1557 1557 1557 1556 1556 1557 1557 1557 1557 1557 1557 1556 1556 1557
1542 1543 1543 1545 1546 1548 1549 1550 1551 1551 1551 1552 1553 1554 1555 1558 1558 1558 1558 1558 1558 1558 1557 1558 1558 1558 1559 1559 1558 1558 1558 1558 1558
1542 1543 1544 1545 1547 1549 1550 1551 1552 1552 1553 1553 1554 1555 1556 1561 1560 1559 1559 1559 1559 1558 1558 1558 1558 1558 1558 1558 1559 1559 1559 1558 1558
1542 1543 1545 1547 1548 1549 1550 1551 1552 1553 1554 1555 1556 1557 1558 1561 1561 1563 1560 1560 1559 1558 1559 1559 1559 1558 1558 1558 1558 1558 1558 1558 1557
1542 1543 1546 1547 1548 1549 1551 1552 1553 1554 1555 1556 1557 1558 1559 1561 1561 1562 1560 1560 1560 1559 1558 1558 1558 1558 1558 1558 1558 1558 1557 1557 1556
1543 1544 1545 1547 1548 1550 1551 1552 1554 1555 1556 1557 1559 1559 1561 1562 1562 1561 1560 1560 1559 1559 1558 1558 1557 1557 1557 1557 1557 1557 1556 1556 1556
1543 1543 1544 1546 1547 1549 1551 1553 1554 1556 1558 1558 1559 1560 1562 1562 1562 1560 1560 1560 1560 1559 1558 1557 1557 1557 1556 1557 1556 1557 1556 1556 1556
1542 1542 1544 1546 1547 1549 1551 1553 1554 1556 1560 1559 1560 1562 1563 1562 1562 1560 1559 1559 1559 1558 1557 1557 1556 1556 1556 1557 1557 1556 1556 1556 1556
1541 1542 1543 1545 1546 1548 1550 1552 1554 1557 1559 1560 1561 1562 1562 1561 1561 1558 1558 1559 1558 1558 1556 1556 1556 1556 1557 1557 1557 1557 1556 1556 1556
1541 1543 1544 1545 1546 1549 1550 1554 1555 1555 1557 1558 1559 1560 1560 1560 1560 1558 1557 1558 1558 1557 1556 1555 1555 1555 1556 1556 1557 1556 1556 1556 1555
1539 1541 1543 1544 1545 1547 1549 1551 1553 1553 1554 1556 1556 1556 1557 1558 1559 1558 1556 1556 1556 1556 1555 1554 1554 1555 1554 1554 1555 1555 1556 1555 1555
1536 1539 1541 1542 1543 1545 1547 1549 1550 1551 1551 1553 1553 1554 1554 1555 1556 1556 1554 1554 1554 1553 1553 1553 1554 1553 1553 1553 1553 1554 1554 1554 1553
1533 1535 1538 1539 1541 1541 1543 1545 1546 1547 1547 1549 1550 1551 1551 1553 1553 1552 1553 1551 1550 1551 1550 1550 1551 1551 1551 1552 1552 1552 1552 1552 1552
1529 1532 1534 1536 1537 1538 1539 1540 1541 1543 1544 1546 1547 1548 1548 1549 1549 1549 1550 1550 1549 1548 1548 1549 1549 1548 1549 1549 1549 1550 1550 1550 1549
1525 1527 1530 1532 1533 1534 1534 1537 1537 1539 1541 1543 1544 1544 1545 1544 1545 1545 1545 1546 1547 1546 1544 1545 1544 1545 1546 1546 1546 1547 1547 1547 1546
1522 1522 1524 1526 1527 1529 1531 1532 1534 1535 1538 1539 1540 1539 1540 1540 1540 1541 1541 1541 1541 1542 1542 1542 1541 1542 1541 1542 1542 1543 1543 1543 1543
1517 1517 1519 1520 1523 1525 1527 1527 1528 1529 1532 1533 1536 1537 1537 1534 1534 1535 1536 1536 1536 1538 1538 1537 1538 1538 1538 1537 1538 1539 1539 1540 1540
1510 1511 1513 1515 1516 1518 1521 1521 1521 1522 1524 1527 1531 1531 1529 1528 1528 1529 1530 1531 1530 1532 1533 1533 1533 1534 1533 1532 1533 1533 1535 1536 1536
1503 1504 1506 1509 1510 1510 1512 1515 1515 1516 1517 1520 1522 1523 1523 1524 1525 1524 1524 1525 1526 1525 1527 1528 1529 1528 1529 1528 1527 1528 1529 1529 1529
1497 1498 1499 1500 1503 1504 1505 1508 1509 1509 1512 1511 1514 1516 1518 1519 1519 1518 1518 1519 1520 1521 1522 1523 1524 1523 1524 1524 1523 1523 1523 1523 1524